Volver al catálogo

STARLINK-34541

ActivoComunicacionesVLEO
NORAD 64771·PAYLOAD·🇺🇸 United States

Lanzado Jul 8, 2025 desde Cape Canaveral Space Force Station

Loading…

Próximos Pases (próximas 24 horas)

TLE

ActualizadoSource: CelesTrak SupGP

Época: Sep 15, 2026, 03:08 UTC

1 64771C 25147S   26258.13104167 -.00023628  00000+0 -69819-3 0  2586
2 64771  53.1571  78.6706 0000774  82.5972 308.3609 15.34398930    19

Sigue STARLINK-34541 en tiempo real con AllMySat

Download on the App Store